Location: Marcé
(47.5801°N, 0.3280°W)
Time: 04:46:10
(UTC+02:00)

Envisat - Visible Passes

Search period start: 17 October 2021 00:00
Search period end: 27 October 2021 00:00
Orbit: 764 x 766 km, 98.2° (Epoch: 16 October)

Date Brightness Start Highest point End Pass type
(mag) Time Alt. Az. Time Alt. Az. Time Alt. Az.
17 Oct 6.1 05:42:44 10° ENE 05:44:51 12° E 05:46:56 10° ESE visible
17 Oct 3.0 07:19:29 10° NNE 07:24:36 88° ESE 07:29:41 10° SSW visible
18 Oct 4.3 06:42:48 10° NNE 06:47:40 43° E 06:52:28 10° S visible
18 Oct 6.2 19:42:09 10° WSW 19:45:05 15° W 19:48:02 10° NW visible
19 Oct 5.5 06:06:41 10° NE 06:10:30 21° E 06:14:18 10° SE visible
19 Oct 3.1 07:44:54 10° N 07:49:53 57° WNW 07:54:51 10° SSW visible
20 Oct 3.3 07:07:58 10° NNE 07:13:04 71° ESE 07:18:08 10° S visible
21 Oct 4.7 06:31:26 10° NNE 06:36:04 34° E 06:40:40 10° SSE visible
21 Oct 6.0 19:29:50 10° SW 19:33:25 19° W 19:37:01 10° NW visible
22 Oct 5.8 05:55:35 10° NE 05:58:50 17° E 06:02:05 10° SE visible
22 Oct 3.0 07:33:18 10° N 07:38:23 71° WNW 07:43:26 10° SSW visible
23 Oct 3.7 06:56:29 10° NNE 07:01:31 57° E 07:06:30 10° S visible
23 Oct 6.6 19:57:38 10° WSW 19:59:06 11° W 20:00:34 10° WNW visible
24 Oct 5.1 06:20:05 10° NE 06:24:27 28° E 06:28:46 10° SSE visible
24 Oct 3.4 07:58:49 10° N 08:03:37 43° WNW 08:08:23 10° SW visible
25 Oct 6.1 05:44:43 10° ENE 05:47:10 13° E 05:49:36 10° ESE visible
25 Oct 3.0 07:21:45 10° NNE 07:26:52 87° WNW 07:31:57 10° SSW visible
26 Oct 4.1 06:45:03 10° NNE 06:49:57 46° E 06:54:48 10° S visible
26 Oct 6.2 19:44:43 10° WSW 19:47:24 14° W 19:50:06 10° NW visible
